Total_Precipitation_Accumulation
0.04 0.05 0.06 0.07 0.07 0.08 0.12 0.05 0.01 0.00 0.00 0.00 0.00 0.00 0.01 0.00 0.00 0.01 0.05 0.06 0.21 0.21 0.09 0.12 0.22 0.30 0.31 0.37 0.36 0.33 0.34 0.35 0.34
0.06 0.04 0.04 0.04 0.05 0.04 0.02 0.00 0.00 0.00 0.00 0.00 0.01 0.01 0.00 0.00 0.00 0.01 0.02 0.04 0.12 0.08 0.08 0.04 0.07 0.09 0.14 0.16 0.21 0.31 0.42 0.47 0.51
0.07 0.04 0.04 0.03 0.02 0.01 0.00 0.00 0.00 0.00 0.00 0.01 0.01 0.01 0.00 0.00 0.00 0.00 0.01 0.04 0.03 0.03 0.03 0.04 0.04 0.05 0.07 0.07 0.09 0.14 0.18 0.21 0.27
0.08 0.06 0.06 0.03 0.02 0.02 0.02 0.02 0.02 0.02 0.01 0.01 0.00 0.00 0.00 0.00 0.00 0.00 0.00 0.02 0.02 0.03 0.05 0.07 0.07 0.09 0.09 0.08 0.09 0.09 0.11 0.13 0.15
0.09 0.05 0.06 0.04 0.02 0.01 0.02 0.02 0.02 0.02 0.02 0.01 0.00 0.00 0.00 0.00 0.00 0.00 0.00 0.00 0.02 0.07 0.08 0.09 0.11 0.16 0.18 0.20 0.17 0.13 0.11 0.11 0.14
0.02 0.03 0.05 0.05 0.02 0.00 0.01 0.01 0.01 0.01 0.01 0.00 0.00 0.00 0.00 0.00 0.00 0.00 0.00 0.01 0.02 0.04 0.08 0.11 0.12 0.13 0.14 0.13 0.12 0.10 0.10 0.11 0.12
0.02 0.02 0.04 0.05 0.01 0.00 0.00 0.00 0.00 0.00 0.00 0.00 0.00 0.00 0.00 0.00 0.00 0.00 0.00 0.00 0.02 0.03 0.04 0.06 0.06 0.04 0.04 0.05 0.05 0.06 0.07 0.08 0.12
0.03 0.03 0.03 0.02 0.00 0.00 0.00 0.00 0.00 0.00 0.00 0.00 0.00 0.00 0.00 0.00 0.00 0.00 0.00 0.01 0.01 0.01 0.03 0.03 0.04 0.03 0.03 0.03 0.04 0.07 0.10 0.12 0.17
0.02 0.01 0.01 0.01 0.00 0.00 0.00 0.00 0.00 0.00 0.00 0.00 0.00 0.00 0.00 0.00 0.00 0.00 0.00 0.00 0.01 0.01 0.01 0.02 0.03 0.03 0.03 0.03 0.08 0.12 0.14 0.16 0.18
0.01 0.00 0.00 0.00 0.00 0.00 0.00 0.00 0.00 0.00 0.00 0.00 0.00 0.00 0.00 0.00 0.00 0.00 0.00 0.00 0.00 0.00 0.01 0.01 0.01 0.04 0.07 0.11 0.13 0.14 0.12 0.10 0.09
0.00 0.00 0.00 0.00 0.00 0.00 0.00 0.00 0.00 0.00 0.00 0.00 0.00 0.00 0.00 0.00 0.00 0.00 0.00 0.00 0.00 0.00 0.01 0.03 0.01 0.02 0.04 0.07 0.12 0.11 0.09 0.08 0.08
0.00 0.00 0.00 0.00 0.00 0.00 0.00 0.00 0.00 0.00 0.00 0.00 0.00 0.00 0.00 0.00 0.00 0.00 0.00 0.00 0.00 0.00 0.03 0.21 0.19 0.10 0.10 0.17 0.16 0.14 0.12 0.11 0.12
0.00 0.00 0.00 0.00 0.00 0.00 0.00 0.00 0.00 0.00 0.00 0.00 0.00 0.00 0.00 0.00 0.00 0.00 0.00 0.00 0.00 0.00 0.00 0.10 0.30 0.43 0.42 0.61 0.89 0.70 0.44 0.30 0.22
0.00 0.00 0.00 0.00 0.00 0.00 0.00 0.00 0.00 0.00 0.00 0.00 0.00 0.00 0.00 0.00 0.00 0.00 0.00 0.00 0.00 0.00 0.00 0.00 0.05 0.16 0.28 0.40 0.66 1.09 0.77 0.45 0.40
0.02 0.00 0.01 0.00 0.00 0.00 0.00 0.00 0.00 0.00 0.00 0.00 0.00 0.00 0.00 0.00 0.00 0.00 0.00 0.00 0.00 0.00 0.00 0.00 0.00 0.00 0.02 0.12 0.28 0.53 0.85 0.56 0.37
0.15 0.08 0.04 0.01 0.00 0.00 0.00 0.00 0.00 0.00 0.00 0.00 0.00 0.00 0.00 0.00 0.00 0.00 0.00 0.00 0.00 0.00 0.01 0.03 0.06 0.03 0.05 0.04 0.05 0.15 0.29 0.42 0.51
0.38 0.22 0.22 0.09 0.02 0.01 0.00 0.01 0.01 0.01 0.01 0.02 0.04 0.03 0.01 0.00 0.00 0.01 0.00 0.00 0.01 0.03 0.07 0.12 0.12 0.07 0.04 0.04 0.04 0.05 0.09 0.28 0.41
1.03 0.77 0.65 0.47 0.29 0.36 0.28 0.32 0.30 0.23 0.22 0.18 0.23 0.23 0.19 0.14 0.05 0.05 0.05 0.08 0.07 0.07 0.05 0.05 0.05 0.04 0.05 0.09 0.11 0.14 0.18 0.32 0.51
1.66 1.63 1.34 1.15 1.06 0.93 1.00 0.83 0.91 0.98 0.85 0.72 0.57 0.57 0.45 0.41 0.23 0.07 0.08 0.07 0.06 0.06 0.03 0.03 0.05 0.09 0.16 0.26 0.35 0.40 0.40 0.41 0.51
1.40 1.57 1.68 1.65 1.70 1.63 1.66 1.61 1.48 1.30 1.07 0.85 0.77 0.64 0.57 0.57 0.76 0.59 0.31 0.25 0.13 0.06 0.07 0.09 0.12 0.18 0.28 0.37 0.42 0.45 0.46 0.51 0.60